This demonstration page uses our WeatherBlox Daily Observations layout. Learn more.

Left ArrowRight Arrow

39.29038, -76.61219

Hourly Observations for February 4, 2019

Temp ( °F °C ) Dew Point ( °F °C ) Humidity (%) Winds ( mph kmh ) Pressure ( in mb ) Visibility ( mi km ) Precip ( " mm )
12:54 am 00:54 undefined 37 2.8 31 -0.6 79 79 undefined N/A 30.11 1020 N/A N/A
1:54 am 01:54 undefined 37 2.8 30 -1.1 76 76 undefined N/A 30.10 1019 N/A N/A
2:54 am 02:54 undefined 36 2.2 30 -1.1 79 79 undefined N/A 30.09 1019 N/A N/A
3:54 am 03:54 undefined 34 1.1 29 -1.7 82 82 undefined N/A 30.09 1019 N/A N/A
4:54 am 04:54 undefined 34 1.1 29 -1.7 82 82 undefined N/A 30.09 1019 N/A N/A
5:54 am 05:54 undefined 34 1.1 29 -1.7 82 82 undefined N/A 30.09 1019 N/A N/A
6:54 am 06:54 undefined 34 1.1 29 -1.7 82 82 undefined N/A 30.09 1019 N/A N/A
7:54 am 07:54 undefined 35 1.7 30 -1.1 82 82 undefined N/A 30.10 1019 N/A N/A
8:54 am 08:54 undefined 40 4.4 32 undefined 73 73 undefined N/A 30.15 1021 N/A N/A
9:54 am 09:54 undefined 44 6.7 35 1.7 71 71 undefined N/A 30.17 1022 N/A N/A
10:54 am 10:54 undefined 49 9.4 36 2.2 61 61 undefined N/A 30.16 1022 N/A N/A
11:54 am 11:54 undefined 48 8.9 37 2.8 66 66 undefined N/A 30.13 1020 N/A N/A
12:54 pm 12:54 undefined 51 10.6 38 3.3 61 61 undefined N/A 30.09 1019 N/A N/A
1:54 pm 13:54 undefined 53 11.7 39 3.9 59 59 undefined N/A 30.06 1018 N/A N/A
2:54 pm 14:54 undefined 54 12.2 38 3.3 55 55 undefined N/A 30.01 1016 N/A N/A
3:54 pm 15:54 undefined 53 11.7 37 2.8 55 55 undefined N/A 30.00 1016 N/A N/A
4:54 pm 16:54 undefined 54 12.2 37 2.8 53 53 undefined N/A 30.01 1016 N/A N/A
5:54 pm 17:54 undefined 47 8.3 37 2.8 69 69 undefined N/A 29.99 1016 N/A N/A
6:54 pm 18:54 undefined 47 8.3 36 2.2 66 66 undefined N/A 30.00 1016 N/A N/A
7:54 pm 19:54 undefined 45 7.2 36 2.2 71 71 undefined N/A 30.00 1016 N/A N/A
8:54 pm 20:54 undefined 45 7.2 36 2.2 71 71 undefined N/A 29.99 1016 N/A N/A
9:54 pm 21:54 undefined 40 4.4 34 1.1 79 79 undefined N/A 30.00 1016 N/A N/A
10:54 pm 22:54 undefined 40 4.4 34 1.1 79 79 undefined N/A 30.00 1016 N/A N/A
11:54 pm 23:54 undefined 39 3.9 33 0.6 79 79 undefined N/A 29.99 1016 N/A N/A

Powered by AerisWeather